When you browse on this site, cookies collect data to enhance your experience and personalize the content and advertising you see.
Visit our Privacy Policy to learn more. By continuing to use the site, you agree to this use of cookies and data.
  • En España
  • Lista de países
  • Para 7 días
  • Temperatura del agua
  • El tiempo en el mapa
  • Informadores
  • user-avatar
    Iniciar sesión

    Tiempo cada hora Sana

    Hoy, 23 Agosto, Viernes

    Tiempo Temperatura Precipitaciones Viento Presión Humedad
    00:00 +23°C° 0 mm 1 mps 579 mmHg 39%
    01:00 +23°C° 0 mm 1 mps 579 mmHg 40%
    02:00 +22°C° 0 mm 1 mps 578 mmHg 40%
    03:00 +22°C° 0 mm 1 mps 578 mmHg 37%
    04:00 +21°C° 0 mm 1 mps 578 mmHg 37%
    05:00 +21°C° 0 mm 1 mps 578 mmHg 37%
    06:00 +20°C° 0 mm 1 mps 578 mmHg 37%
    07:00 +22°C° 0 mm 1 mps 579 mmHg 32%
    08:00 +24°C° 0 mm 1 mps 580 mmHg 27%
    09:00 +25°C° 0 mm 2 mps 581 mmHg 22%
    10:00 +26°C° 0 mm 3 mps 581 mmHg 20%
    11:00 +27°C° 0 mm 3 mps 581 mmHg 18%
    12:00 +28°C° 0 mm 4 mps 582 mmHg 16%
    13:00 +28°C° 0.1 mm 4 mps 581 mmHg 18%
    14:00 +29°C° 0.1 mm 4 mps 581 mmHg 19%
    15:00 +29°C° 0.1 mm 4 mps 581 mmHg 20%
    16:00 +28°C° 0.3 mm 4 mps 580 mmHg 27%
    17:00 +26°C° 0.3 mm 4 mps 580 mmHg 33%
    18:00 +25°C° 0.3 mm 4 mps 580 mmHg 39%
    19:00 +25°C° 0.2 mm 3 mps 580 mmHg 39%
    20:00 +25°C° 0.2 mm 3 mps 580 mmHg 39%
    21:00 +24°C° 0.2 mm 2 mps 580 mmHg 39%
    22:00 +24°C° 0 mm 2 mps 580 mmHg 44%
    23:00 +23°C° 0 mm 1 mps 580 mmHg 49%

    Mañana, 24 Agosto, Sábado

    Tiempo Temperatura Precipitaciones Viento Presión Humedad
    00:00 +22°C° 0 mm 1 mps 579 mmHg 53%
    01:00 +22°C° 0 mm 1 mps 579 mmHg 55%
    02:00 +22°C° 0 mm 1 mps 578 mmHg 56%
    03:00 +21°C° 0 mm 1 mps 578 mmHg 58%
    04:00 +19°C° 0 mm 0 mps 578 mmHg 57%
    05:00 +19°C° 0 mm 0 mps 578 mmHg 57%
    06:00 +18°C° 0 mm 0 mps 579 mmHg 57%
    07:00 +20°C° 0 mm 0 mps 579 mmHg 50%
    08:00 +21°C° 0 mm 0 mps 580 mmHg 42%
    09:00 +24°C° 0 mm 1 mps 581 mmHg 34%
    10:00 +25°C° 0 mm 1 mps 581 mmHg 33%
    11:00 +25°C° 0 mm 1 mps 581 mmHg 31%
    12:00 +26°C° 0 mm 2 mps 581 mmHg 30%
    13:00 +26°C° 0.3 mm 3 mps 581 mmHg 31%
    14:00 +26°C° 0.3 mm 4 mps 580 mmHg 32%
    15:00 +26°C° 0.3 mm 5 mps 580 mmHg 34%
    16:00 +25°C° 0.4 mm 4 mps 580 mmHg 41%
    17:00 +23°C° 0.4 mm 4 mps 579 mmHg 47%
    18:00 +21°C° 0.4 mm 4 mps 579 mmHg 54%
    19:00 +21°C° 0.1 mm 3 mps 579 mmHg 55%
    20:00 +21°C° 0.1 mm 2 mps 579 mmHg 55%
    21:00 +22°C° 0.1 mm 1 mps 580 mmHg 56%
    22:00 +22°C° 0 mm 1 mps 579 mmHg 56%
    23:00 +20°C° 0 mm 2 mps 579 mmHg 56%

    Pasado mañana, 25 Agosto, Domingo

    Tiempo Temperatura Precipitaciones Viento Presión Humedad
    00:00 +20°C° 0 mm 2 mps 579 mmHg 56%
    01:00 +21°C° 0 mm 1 mps 579 mmHg 56%
    02:00 +21°C° 0 mm 1 mps 578 mmHg 56%
    03:00 +21°C° 0 mm 1 mps 578 mmHg 56%
    04:00 +20°C° 0 mm 1 mps 578 mmHg 55%
    05:00 +20°C° 0 mm 1 mps 578 mmHg 54%
    06:00 +20°C° 0 mm 1 mps 578 mmHg 53%
    07:00 +21°C° 0 mm 1 mps 579 mmHg 47%
    08:00 +23°C° 0 mm 1 mps 580 mmHg 41%
    09:00 +24°C° 0 mm 1 mps 581 mmHg 35%
    10:00 +25°C° 0 mm 2 mps 581 mmHg 34%
    11:00 +25°C° 0 mm 2 mps 581 mmHg 32%
    12:00 +26°C° 0 mm 3 mps 581 mmHg 31%
    13:00 +26°C° 0.3 mm 3 mps 580 mmHg 33%
    14:00 +26°C° 0.3 mm 3 mps 580 mmHg 35%
    15:00 +26°C° 0.3 mm 4 mps 579 mmHg 38%
    16:00 +25°C° 0.3 mm 4 mps 579 mmHg 41%
    17:00 +23°C° 0.3 mm 4 mps 579 mmHg 44%
    18:00 +23°C° 0.3 mm 4 mps 579 mmHg 47%
    19:00 +22°C° 0.1 mm 3 mps 579 mmHg 49%
    20:00 +23°C° 0.1 mm 2 mps 579 mmHg 51%
    21:00 +23°C° 0.1 mm 2 mps 579 mmHg 53%
    22:00 +21°C° 0 mm 2 mps 579 mmHg 52%
    23:00 +22°C° 0 mm 1 mps 579 mmHg 51%

    26 Agosto, Lunes

    Tiempo Temperatura Precipitaciones Viento Presión Humedad
    00:00 +22°C° 0 mm 1 mps 579 mmHg 51%
    01:00 +22°C° 0 mm 1 mps 578 mmHg 49%
    02:00 +21°C° 0 mm 1 mps 578 mmHg 48%
    03:00 +21°C° 0 mm 1 mps 577 mmHg 46%
    04:00 +21°C° 0 mm 1 mps 577 mmHg 46%
    05:00 +21°C° 0 mm 1 mps 577 mmHg 46%
    06:00 +20°C° 0 mm 1 mps 577 mmHg 46%
    07:00 +22°C° 0 mm 1 mps 579 mmHg 39%
    08:00 +24°C° 0 mm 1 mps 580 mmHg 32%
    09:00 +25°C° 0 mm 1 mps 581 mmHg 25%
    10:00 +26°C° 0 mm 2 mps 581 mmHg 23%
    11:00 +27°C° 0 mm 3 mps 581 mmHg 21%
    12:00 +28°C° 0 mm 4 mps 581 mmHg 19%
    13:00 +28°C° 0.1 mm 4 mps 580 mmHg 21%
    14:00 +28°C° 0.1 mm 4 mps 580 mmHg 24%
    15:00 +28°C° 0.1 mm 4 mps 580 mmHg 26%
    16:00 +27°C° 0.3 mm 4 mps 579 mmHg 30%
    17:00 +26°C° 0.3 mm 3 mps 579 mmHg 34%
    18:00 +25°C° 0.3 mm 3 mps 579 mmHg 38%
    19:00 +25°C° 0.1 mm 2 mps 579 mmHg 40%
    20:00 +24°C° 0.1 mm 2 mps 579 mmHg 43%
    21:00 +24°C° 0.1 mm 1 mps 579 mmHg 46%
    22:00 +24°C° 0 mm 1 mps 579 mmHg 46%
    23:00 +23°C° 0 mm 1 mps 579 mmHg 46%

    27 Agosto, Martes

    Tiempo Temperatura Precipitaciones Viento Presión Humedad
    00:00 +23°C° 0 mm 1 mps 579 mmHg 46%
    01:00 +23°C° 0 mm 1 mps 578 mmHg 45%
    02:00 +23°C° 0 mm 1 mps 578 mmHg 45%
    03:00 +22°C° 0 mm 1 mps 577 mmHg 45%
    04:00 +22°C° 0 mm 1 mps 577 mmHg 46%
    05:00 +21°C° 0 mm 1 mps 577 mmHg 48%
    06:00 +19°C° 0 mm 0 mps 578 mmHg 49%
    07:00 +20°C° 0 mm 0 mps 578 mmHg 41%
    08:00 +22°C° 0 mm 0 mps 579 mmHg 34%
    09:00 +25°C° 0 mm 1 mps 580 mmHg 26%
    10:00 +26°C° 0 mm 2 mps 580 mmHg 25%
    11:00 +27°C° 0 mm 2 mps 580 mmHg 23%
    12:00 +27°C° 0 mm 3 mps 580 mmHg 22%
    13:00 +27°C° 0.2 mm 4 mps 580 mmHg 26%
    14:00 +27°C° 0.2 mm 4 mps 579 mmHg 31%
    15:00 +27°C° 0.2 mm 5 mps 578 mmHg 35%
    16:00 +26°C° 0.2 mm 4 mps 578 mmHg 39%
    17:00 +25°C° 0.2 mm 3 mps 578 mmHg 42%
    18:00 +24°C° 0.2 mm 2 mps 578 mmHg 45%
    19:00 +24°C° 0 mm 2 mps 578 mmHg 44%
    20:00 +24°C° 0 mm 3 mps 579 mmHg 42%
    21:00 +24°C° 0 mm 3 mps 579 mmHg 41%
    22:00 +24°C° 0 mm 2 mps 579 mmHg 41%
    23:00 +23°C° 0 mm 1 mps 578 mmHg 40%

    28 Agosto, Miércoles

    Tiempo Temperatura Precipitaciones Viento Presión Humedad
    00:00 +23°C° 0 mm 1 mps 578 mmHg 40%
    01:00 +23°C° 0 mm 1 mps 578 mmHg 42%
    02:00 +20°C° 0 mm 0 mps 577 mmHg 44%
    03:00 +20°C° 0 mm 0 mps 577 mmHg 46%
    04:00 +19°C° 0 mm 0 mps 577 mmHg 46%
    05:00 +19°C° 0 mm 0 mps 577 mmHg 47%
    06:00 +21°C° 0 mm 1 mps 577 mmHg 48%
    07:00 +22°C° 0 mm 1 mps 578 mmHg 43%
    08:00 +23°C° 0 mm 1 mps 579 mmHg 38%
    09:00 +25°C° 0 mm 2 mps 579 mmHg 33%
    10:00 +25°C° 0 mm 2 mps 579 mmHg 30%
    11:00 +26°C° 0 mm 2 mps 580 mmHg 27%
    12:00 +27°C° 0 mm 2 mps 580 mmHg 25%
    13:00 +27°C° 0.1 mm 3 mps 579 mmHg 27%
    14:00 +27°C° 0.1 mm 4 mps 579 mmHg 30%
    15:00 +27°C° 0.1 mm 4 mps 578 mmHg 32%
    16:00 +26°C° 0.3 mm 4 mps 578 mmHg 38%
    17:00 +25°C° 0.3 mm 4 mps 578 mmHg 43%
    18:00 +24°C° 0.3 mm 3 mps 578 mmHg 48%
    19:00 +22°C° 0.4 mm 3 mps 578 mmHg 51%
    20:00 +22°C° 0.4 mm 3 mps 578 mmHg 54%
    21:00 +21°C° 0.4 mm 2 mps 578 mmHg 56%
    22:00 +21°C° 0.2 mm 2 mps 578 mmHg 56%
    23:00 +21°C° 0.2 mm 2 mps 578 mmHg 55%
    Mostrar más